Regional Weather Roundup
Issued by NWS

Home | Current Version | Previous Version | Text Only | Print | Product List | Glossary On
Versions: 1 2 3 4 5 6 7 8 9 10 11 12 13 14 15 16 17 18 19 20 21 22 23 24 25 26 27 28 29 30 31 32 33 34 35 36 37 38 39 40 41 42 43 44 45 46 47 48 49 50
991
ASUS44 KBMX 300210
RWRAL

ALABAMA REGIONAL WEATHER ROUNDUP
NATIONAL WEATHER SERVICE BIRMINGHAM AL
900 PM CDT FRI JUL 29 2016

NOTE: "FAIR" INDICATES FEW OR NO CLOUDS BELOW 12,000 FEET
WITH NO SIGNIFICANT WEATHER AND/OR OBSTRUCTIONS TO VISIBILITY.

THE REMARK "TC" DENOTES TEMPERATURE IN DEGREES CELSIUS.

ALZ001>011-014-016>018-020-300300-
NORTH ALABAMA

CITY           SKY/WX    TMP DP  RH WIND       PRES   REMARKS
MUSCLE SHOALS  RAIN      74  69  85 NW9       30.03R
HUNTSVILLE     PTCLDY    79  70  74 W3        29.99R
DECATUR        PTCLDY    81  72  74 W7        30.00R
HALEYVILLE     FAIR      75  74  96 CALM      30.04R
GADSDEN        CLOUDY    78  73  84 SW3       30.01R
$$

ALZ012-013-022-023-030>036-040>044-300300-
WEST CENTRAL ALABAMA

CITY           SKY/WX    TMP DP  RH WIND       PRES   REMARKS
TUSCALOOSA     CLEAR     80  74  81 CALM      29.99R
$$

ALZ015-024>027-033>036-040>044-300300-
CENTRAL ALABAMA

CITY           SKY/WX    TMP DP  RH WIND       PRES   REMARKS
BIRMINGHAM     CLOUDY    81  73  76 CALM      30.03R
MONTGOMERY     CLOUDY    85  71  63 SW6       30.00R HX  90
SHELBY CO ARPT PTCLDY    81  71  71 CALM      30.01R
MAXWELL AFB    CLOUDY    80  76  86 S2        29.99R
GREENVILLE     FAIR      81  71  71 SW5       30.02R
$$

ALZ019-021-028-029-037-038-045>048-300300-
EAST CENTRAL ALABAMA

CITY           SKY/WX    TMP DP  RH WIND       PRES   REMARKS
ANNISTON       CLOUDY    76  73  91 CALM      30.01R
ALEXANDER CITY MOCLDY    80  76  88 SW7       30.02R
AUBURN         CLOUDY    82  71  69 SW8       30.03R
$$

ALZ051>064-300300-
SOUTHWEST ALABAMA

CITY           SKY/WX    TMP DP  RH WIND       PRES   REMARKS
MOBILE         PTCLDY    79  73  82 CALM      30.03R
BROOKLEY FIELD CLEAR     77  75  93 CALM      30.03R
EVERGREEN      CLOUDY    77  72  84 CALM      30.02R
$$

ALZ049-050-065>069-300300-
SOUTHEAST ALABAMA

CITY           SKY/WX    TMP DP  RH WIND       PRES   REMARKS
DOTHAN         PTCLDY    79  74  84 S6        30.05R
OZARK          PTCLDY    78  76  94 S6        30.01S
TROY           CLOUDY    77  74  90 CALM      30.03R
EUFAULA        FAIR      81  71  71 SW3       30.00R
$$




USA.gov is the U.S. government's official web portal to all federal, state and local government web resources and services.